Change the Weather History Date:

Tuesday, December 4, 2012

  Actual Average Record
Temperature  
Mean Temperature 60 °F -  
Max Temperature 68 °F 67 °F 78 °F (2006)
Min Temperature 53 °F 49 °F 37 °F (2011)
Degree Days  
Heating Degree Days 4    
Growing Degree Days 10 (Base 50)    
Moisture  
Dew Point 53 °F    
Average Humidity 82    
Maximum Humidity 100    
Minimum Humidity 36    
Precipitation  
Precipitation 0.00 in - - ()
Sea Level Pressure  
Sea Level Pressure 30.19 in    
Wind  
Wind Speed 3 mph (NNW)    
Max Wind Speed 7 mph    
Max Gust Speed -    
Visibility 6 miles    
Events      
Averages and records for this station are not official NWS values.
T = Trace of Precipitation, MM = Missing Value Source: NWS Daily Summary

Daily Weather History Graph

Daily Weather History Graph

Search for Another Location

Airport or City:

Trip Planner

Search our weather history database for the weather conditions in past years. The results will help you decide how hot, cold, wet, or windy it might be!

Date:

Astronomy

Dec. 04, 2012 Rise Set
Actual Time 6:41 AM PST 4:43 PM PST
Civil Twilight 6:14 AM PST 5:10 PM PST
Nautical Twilight 5:43 AM PST 5:41 PM PST
Astronomical Twilight 5:13 AM PST 6:11 PM PST
Moon 10:24 PM PST (12/4) 10:48 AM PST (12/4)
Length of Visible Light 10h 56m
Length of Day
10h 01m
Waning Gibbous, 68% of the Moon is Illuminated
Dec 4
Waning Gibbous
Dec 6
Last Quarter
Dec 13
New
Dec 19
First Quarter
Dec 28
Full

Hourly Weather History & Observations

Time (PST) Temp. Dew Point Humidity Pressure Visibility Wind Dir Wind Speed Gust Speed Precip Events Conditions
12:03 AM 55.4 °F 55.4 °F 100% 30.19 in 1.8 mi ENE 2.3 mph - N/A   Clear
12:08 AM 55.4 °F 55.4 °F 100% 30.19 in 3.0 mi ESE 2.3 mph - N/A   Partly Cloudy
12:38 AM 55.4 °F 55.4 °F 100% 30.19 in 5.0 mi East 4.6 mph - N/A   Mostly Cloudy
12:58 AM 57.0 °F 57.0 °F 100% 30.20 in 7.0 mi East 4.6 mph - N/A   Overcast
1:29 AM 59.0 °F 59.0 °F 100% 30.19 in 8.0 mi East 2.3 mph - N/A   Overcast
1:58 AM 58.6 °F 58.6 °F 100% 30.21 in 6.0 mi Calm Calm - N/A   Overcast
2:33 AM 59.0 °F 32.0 °F 36% 30.19 in 5.0 mi ENE 1.2 mph - N/A   Haze
2:58 AM 59.0 °F 32.0 °F 36% 30.20 in 6.0 mi Calm Calm - N/A   Haze
3:33 AM 59.0 °F 32.0 °F 36% 30.20 in 6.0 mi NNW 2.3 mph - N/A   Haze
3:58 AM 59.0 °F 32.0 °F 36% 30.21 in 6.0 mi NNW 1.2 mph - N/A   Haze
4:23 AM 59.0 °F 32.0 °F 36% 30.20 in 8.0 mi Calm Calm - N/A   Overcast
4:48 AM 59.0 °F 32.0 °F 36% 30.20 in 7.0 mi Calm Calm - N/A   Overcast
4:58 AM 59.0 °F 32.0 °F 36% 30.21 in 6.0 mi NW 2.3 mph - N/A   Haze
5:58 AM 59.0 °F 32.0 °F 36% 30.21 in 7.0 mi Calm Calm - N/A   Overcast
6:58 AM 58.8 °F 57.9 °F 97% 30.22 in 3.0 mi NNW 2.3 mph - N/A   Overcast
7:13 AM 59.0 °F 57.2 °F 94% 30.22 in 3.0 mi NW 1.2 mph - N/A   Overcast
7:53 AM 59.0 °F 57.2 °F 94% 30.22 in 3.0 mi West 2.3 mph - N/A   Overcast
7:58 AM 59.5 °F 57.9 °F 94% 30.23 in 3.0 mi WNW 2.3 mph - N/A   Overcast
8:42 AM 62.6 °F 62.6 °F 100% 30.24 in 6.0 mi NW 5.8 mph - N/A   Scattered Clouds
8:43 AM 62.6 °F 59.0 °F 88% 30.25 in 4.0 mi NW 5.8 mph - N/A   Mostly Cloudy
8:54 AM 62.6 °F 62.6 °F 100% 30.24 in 6.0 mi NW 5.8 mph - N/A   Partly Cloudy
8:58 AM 63.1 °F 59.7 °F 89% 30.25 in 4.0 mi NW 5.8 mph - N/A   Mostly Cloudy
9:54 AM 64.4 °F 60.8 °F 88% 30.24 in 7.0 mi NW 4.6 mph - N/A   Clear
9:58 AM 64.2 °F 59.7 °F 85% 30.25 in 4.0 mi NW 4.6 mph - N/A   Haze
10:54 AM 68.0 °F 59.0 °F 73% 30.23 in 8.0 mi WNW 3.5 mph - N/A   Clear
10:58 AM 67.3 °F 58.6 °F 74% 30.24 in 4.0 mi Variable 3.5 mph - N/A   Haze
11:54 AM 68.0 °F 59.0 °F 73% 30.20 in 10.0 mi NW 4.6 mph - N/A   Clear
11:58 AM 68.0 °F 58.6 °F 72% 30.20 in 5.0 mi Variable 4.6 mph - N/A   Haze
12:54 PM 68.0 °F 57.2 °F 68% 30.16 in 10.0 mi Variable 4.6 mph - N/A   Clear
12:58 PM 68.4 °F 57.9 °F 69% 30.17 in 4.0 mi West 3.5 mph - N/A   Haze
1:54 PM 66.2 °F 64.4 °F 94% 30.14 in 7.0 mi SW 5.8 mph - N/A   Clear
1:58 PM 65.8 °F 60.4 °F 83% 30.15 in 4.0 mi SW 5.8 mph - N/A   Haze
2:58 PM 66.9 °F 60.6 °F 80% 30.15 in 4.0 mi West 6.9 mph - N/A   Haze
3:58 PM - - N/A% 30.16 in 4.0 mi WNW 6.9 mph - N/A   Haze
4:58 PM 61.2 °F 55.8 °F 82% 30.14 in 4.0 mi West 4.6 mph - N/A   Haze
5:58 PM 60.1 °F 60.1 °F 100% 30.16 in 7.0 mi WNW 4.6 mph - N/A   Overcast
6:58 PM 59.0 °F 59.0 °F 100% 30.16 in 10.0 mi NW 2.3 mph - N/A   Mostly Cloudy
7:58 PM 56.8 °F 56.8 °F 100% 30.18 in 10.0 mi NNW 1.2 mph - N/A   Partly Cloudy
8:58 PM 56.3 °F 56.3 °F 100% 30.17 in 10.0 mi ENE 2.3 mph - N/A   Partly Cloudy
9:54 PM 55.4 °F 55.4 °F 100% 30.17 in 8.0 mi ENE 1.2 mph - N/A   Clear
9:58 PM 55.4 °F 55.4 °F 100% 30.18 in 10.0 mi Calm Calm - N/A   Clear
10:47 PM 55.4 °F 55.4 °F 100% 30.16 in 2.0 mi NE 2.3 mph - N/A   Clear
10:52 PM 53.6 °F 53.6 °F 100% 30.16 in 1.5 mi NE 3.5 mph - N/A   Clear
10:57 PM 53.6 °F 53.6 °F 100% 30.16 in 2.0 mi NE 3.5 mph - N/A   Clear
10:58 PM 53.6 °F 53.6 °F 100% 30.16 in 2.0 mi NE 3.5 mph - N/A   Clear
11:03 PM 53.6 °F 53.6 °F 100% 30.16 in 4.0 mi ENE 4.6 mph - N/A   Clear
11:58 PM 54.5 °F 54.5 °F 100% 30.15 in 6.0 mi East 3.5 mph - N/A   Clear